Retour au catalogue

FALCON 9 R/B

ActifGTO
NORAD 42819·ROCKET BODY·🇺🇸 United States

Lancé Jul 5, 2017 depuis Cape Canaveral Space Force Station

Loading…

TLE

PériméSource: Space-Track

Époque: Sep 8, 2026, 19:30 UTC

1 42819U 17041B   26251.81277843  .00005733  00000-0  11321-2 0  9991
2 42819  25.1781 148.9499 7432270 128.9763 323.9406  2.10389116 65138

Suivez FALCON 9 R/B en temps réel avec AllMySat

Download on the App Store